Tracking 22879 objects as of 22-Apr-2021
HD Live streaming from Space Station
objects crossing your sky now

OBJECT K

Track OBJECT K now!
10-day predictions


NORAD ID: 43840
Int'l Code: 2018-102K
Perigee: 530.8 km
Apogee: 552.9 km
Inclination: 97.5 °
Period: 95.3 minutes
Semi major axis: 6912 km
RCS: Unknown
Launch date: December 7, 2018
Source: (TBD)
Launch site: Jiuquan Satellite Launch Center, China (JSC)
aabbcc
Your satellite tracking list
Your tracking list is empty




NASA's NSSDC Master Catalog

Two Line Element Set (TLE):
1 43840U 18102K   21112.09429640  .00002621  00000-0  16262-3 0  9993
2 43840  97.5406 191.1464 0016042 189.2156 268.0130 15.10490513130781
Source of the keplerian elements: AFSPC